Location: Beddau
(51.5575°N, 3.3561°W)
Time: 13:52:58
(UTC+00:00)

COSMOS 2428 - Pass Details

Date: 03 March 2021
Orbit: 846 x 857 km, 70.9° (Epoch: 11 April)

Event Time Altitude Azimuth Distance (km) Brightness Sun altitude
Rises 19:18:14 0° 162° (SSE) 3,394 5.6 -13.3°
Reaches altitude 10° 19:21:14 10° 147° (SSE) 2,465 4.8 -13.8°
Enters shadow 19:24:48 20° 108° (ESE) 1,845 3.8 -14.3°
Exits shadow 19:32:05 - 41° (NE) 3,316 5.5 -15.4°
Sets 19:32:19 0° 40° (NE) 3,395 5.5 -15.5°
